GW4137 Weather Reports


time (UTC)temp
C
wind
direction
speed
KPH
gust
KPH
rain 1hr
cm
rain 24hr
cm
rain mn
cm
humidity
%
barometer
mb
20260906191621 16 0 0.0 6.4 0.00 0.20 0.08 81 1016.2
20260906190059 16 62 3.2 14.5 0.00 0.20 0.08 82 1016.4
20260906184554 15 62 4.8 14.5 0.03 0.20 0.08 85 1016.3
20260906183100 15 63 11.3 17.7 0.03 0.20 0.08 89 1016.3
20260906181603 15 50 11.3 20.9 0.03 0.20 0.08 89 1016.3
20260906180057 15 21 12.9 19.3 0.03 0.20 0.08 93 1016.7
20260906174606 14 45 14.5 24.1 0.00 0.18 0.05 93 1016.8
20260906173108 13 32 17.7 24.1 0.00 0.18 0.05 92 1017.1
20260906171603 13 30 17.7 29.0 0.00 0.18 0.05 93 1017.5
20260906170055 12 317 11.3 25.7 0.00 0.18 0.05 91 1018.2
20260906164604 12 292 8.0 20.9 0.00 0.20 0.05 91 1018.4
20260906163101 12 317 6.4 12.9 0.00 0.20 0.05 91 1018.5
20260906161601 12 323 8.0 14.5 0.00 0.20 0.05 92 1018.2
20260906160109 12 327 8.0 19.3 0.03 0.20 0.05 92 1018.0
20260906154554 11 333 8.0 16.1 0.03 0.23 0.05 92 1018.4
20260906153114 11 336 9.7 22.5 0.03 0.23 0.05 92 1018.6
20260906151554 11 338 17.7 27.4 0.03 0.23 0.05 91 1018.6
20260906150057 11 312 11.3 27.4 0.00 0.20 0.03 91 1018.8
20260906144605 11 321 20.9 32.2 0.00 0.20 0.03 91 1018.7
20260906143104 11 319 20.9 32.2 0.00 0.20 0.03 90 1019.1
20260906141553 12 291 14.5 27.4 0.00 0.20 0.03 87 1019.2
20260906140110 14 297 12.9 22.5 0.00 0.20 0.03 82 1018.8
20260906134617 15 39 1.6 9.7 0.00 0.25 0.03 84 1018.7
20260906133059 14 39 6.4 14.5 0.00 0.25 0.03 84 1018.4
20260906131606 14 40 11.3 17.7 0.00 0.25 0.03 85 1018.2
20260906130107 13 339 4.8 8.0 0.00 0.25 0.03 85 1018.4
20260906124607 13 323 6.4 17.7 0.00 0.25 0.03 83 1018.7
20260906123115 13 5 8.0 19.3 0.00 0.25 0.03 85 1018.7
20260906121606 13 340 11.3 27.4 0.00 0.25 0.03 85 1018.5
20260906120107 13 34 20.9 27.4 0.00 0.25 0.03 86 1018.1
20260906114622 13 26 19.3 24.1 0.00 0.25 0.03 83 1018.4
20260906113059 13 11 12.9 19.3 0.00 0.25 0.03 82 1018.7
20260906111625 13 23 11.3 19.3 0.00 0.25 0.03 82 1018.7
20260906110054 13 34 11.3 19.3 0.00 0.25 0.03 83 1018.6
20260906104603 13 35 11.3 16.1 0.00 0.25 0.03 83 1018.7
20260906103052 13 34 8.0 19.3 0.00 0.25 0.03 84 1018.7
20260906101553 13 32 9.7 19.3 0.00 0.25 0.03 86 1018.8
20260906100054 13 23 14.5 22.5 0.00 0.25 0.03 86 1018.6
20260906094553 13 17 16.1 27.4 0.00 0.25 0.03 88 1018.8
20260906093101 13 9 17.7 30.6 0.00 0.25 0.03 87 1018.6
20260906091600 13 10 20.9 33.8 0.00 0.25 0.03 87 1018.8
20260906090113 13 352 24.1 30.6 0.00 0.25 0.03 86 1019.1
20260906084607 13 329 17.7 27.4 0.00 0.25 0.03 86 1019.5
20260906083103 13 330 11.3 22.5 0.00 0.25 0.03 87 1019.8
20260906081604 13 333 11.3 24.1 0.00 0.25 0.03 88 1020.0
20260906080057 13 273 11.3 19.3 0.03 0.25 0.03 87 1020.1
20260906074603 13 5 0.0 8.0 0.03 0.25 0.03 87 1019.6
20260906073101 13 5 4.8 20.9 0.03 0.25 0.03 87 1019.7
20260906071600 13 23 14.5 24.1 0.03 0.25 0.03 87 1019.6
20260906070114 13 352 19.3 30.6 0.00 0.23 0.00 87 1019.6
20260906064552 13 352 20.9 29.0 0.00 0.23 0.00 86 1019.8
20260906063054 13 331 12.9 24.1 0.03 0.23 0.00 86 1020.3
20260906061613 13 334 19.3 35.4 0.03 0.23 0.00 86 1020.2
20260906060104 13 309 11.3 22.5 0.03 0.23 0.00 86 1020.6
20260906054559 13 360 17.7 24.1 0.03 0.23 0.23 86 1020.2
20260906053057 13 355 17.7 25.7 0.00 0.20 0.20 87 1020.0
20260906051552 12 340 12.9 20.9 0.03 0.20 0.20 88 1019.9
20260906050115 12 337 9.7 17.7 0.03 0.20 0.20 88 1020.0
20260906044556 13 323 9.7 20.9 0.05 0.20 0.20 86 1020.3
20260906043106 13 350 9.7 24.1 0.05 0.20 0.20 85 1020.3
20260906041551 13 352 19.3 30.6 0.05 0.18 0.18 86 1019.3
20260906040115 13 343 20.9 32.2 0.08 0.18 0.18 86 1018.9
20260906034556 13 350 17.7 27.4 0.05 0.15 0.15 85 1019.1
20260906033053 13 340 11.3 20.9 0.05 0.15 0.15 82 1019.6
20260906031603 15 259 4.8 14.5 0.03 0.13 0.13 73 1020.1
20260906024552 15 0 1.6 11.3 0.00 0.10 0.10 70 1018.3
20260906023122 16 13 14.5 20.9 0.00 0.10 0.10 68 1017.8
20260906021556 16 352 9.7 19.3 0.00 0.10 0.10 67 1017.9
20260906020053 16 352 8.0 19.3 0.00 0.10 0.10 67 1017.9
20260906014606 16 352 11.3 19.3 0.00 0.10 0.10 66 1017.8
20260906013058 17 350 9.7 22.5 0.00 0.10 0.10 65 1018.0
20260906011556 17 360 12.9 24.1 0.00 0.10 0.10 64 1018.0
20260906010107 17 5 16.1 24.1 0.00 0.10 0.10 62 1018.0
20260906004613 18 347 12.9 24.1 0.00 0.10 0.10 59 1018.0
20260906003113 18 352 12.9 24.1 0.00 0.10 0.10 57 1018.1
20260906001604 20 313 16.1 27.4 0.00 0.10 0.10 54 1018.2
20260906000111 20 331 17.7 30.6 0.00 0.10 0.10 52 1018.1
20260905234602 20 322 19.3 29.0 0.00 0.10 0.10 52 1018.3
20260905233109 21 317 12.9 25.7 0.00 0.10 0.10 50 1018.4
20260905231602 21 315 11.3 20.9 0.00 0.10 0.10 49 1018.4
20260905230057 21 290 9.7 19.3 0.00 0.10 0.10 45 1018.3
20260905224604 22 327 8.0 22.5 0.00 0.10 0.10 43 1018.3
20260905223052 22 291 6.4 16.1 0.00 0.10 0.10 44 1018.3
20260905221558 21 323 4.8 14.5 0.00 0.10 0.10 44 1018.4
20260905220059 22 0 0.0 12.9 0.00 0.10 0.10 44 1018.5
20260905214553 22 325 1.6 12.9 0.00 0.10 0.10 44 1018.6
20260905213107 21 17 0.0 12.9 0.00 0.10 0.10 42 1018.6
20260905211609 21 5 3.2 11.3 0.00 0.10 0.10 43 1018.6
20260905210104 21 308 6.4 14.5 0.00 0.10 0.10 44 1018.7
20260905204600 21 273 4.8 12.9 0.00 0.10 0.10 45 1018.8
20260905203100 21 288 4.8 16.1 0.00 0.10 0.10 45 1018.9
20260905201554 20 0 3.2 14.5 0.00 0.10 0.10 45 1019.0
20260905200058 20 285 1.6 9.7 0.00 0.10 0.10 45 1019.0
20260905194604 20 285 4.8 14.5 0.00 0.10 0.10 47 1019.1
20260905193057 20 0 3.2 12.9 0.00 0.10 0.10 47 1019.1